DECAYED

SQX-1 R/B, 64963 (Decayed)

Orbit data source: Space-Track

SQX-1 R/B, 64963 was space debris in LEO originally from a launch on Tue, 29 Jul 2025 UTC launched from the Jiuquan Satellite Launch Center, China (JSC). Debris objects in space refer to the collection of defunct objects orbiting the Earth. Examples of debris include non-operational satellites, rocket bodies, and fragments generated from explosions, collisions, or faulty payload assembly.

Not visible in the next 10 days
Identifier
64963, 2025-160B
Orbit
Decayed
Country
Flag of CNCN / PRC
Related business
Flag of CNBeijing Interstellar Glory Space Tech. Co. Ltd. (iSpace) (CN)
Manufacturer
Sanjiang
Mission
Decayed spacecraft
Bus & Motor
Unknown
Mass
~200 kg wet, ~200 kg dry
Launch date (UTC)
2025-07-29 (11 months ago)
Launch vehicle
Unknown
Launch site
Jiuquan Satellite Launch Center, China (JSC)
Object type
Payload
Rocket body
Debris
Shape & HBR
Cyl, 8.0 m
Radar Cross Section
2.853 m², Large (>1 m²)

Expand to show TLE details & history
Last TLE update: 6 months ago

TLE from 6 months ago
0 SQX-1 R/B
1 64963U 25160B   25359.95492091  .15153986  25956-5  13436-3 0  9995
2 64963  97.3985  86.0586 0016541  74.1290 286.1837 16.50959454 23642
Epoch: 2025-12-25T22:55Z
TLE epoch observation values (Epoch: 2025-12-25T22:55:05.166Z)
Latitude
-0.00003°
Longitude
7.58454°
Altitude
137.088 km
Speed
7.826 km/s
True Right ascension
05h 44m 14s
True Declination
0° 00' 00"
Sunlit
Object was in full shadow at epoch
Visualization orbit readout
Latitude
Unknown
Longitude
Unknown
Altitude
Unknown
Speed
Unknown
Apparent Right ascension
Unknown
Apparent Declination
Unknown
Sunlit
N/A
Visualization observer readout
Local Sidereal Time
07:23:36
Azimuth
Unknown
Elevation
Unknown
Doppler factor
Unknown
Orbital elements
Apogee altitude
144.375 km
Perigee altitude
122.832 km
Semi-major axis
6,511.741 km
Eccentricity
0.00165
Inclination
97.3985°
RAAN
86.0586°
Arg. of periapsis
74.129°
True anomaly
286.00156°
Mean anomaly
286.1837°
Eccentric anomaly
286.09264°
Mean motion
4.13045 °/min
Orbital period
87.16 mins
BSTAR
0.00013436
Loading maneuver chart data...
Computing Atmospheric mass density...
Loading historical data...
Loading historical data...
Loading historical data...
Loading historical data...
Loading historical data...
Loading historical data...
Loading historical data...
Other satellites on launch #160 in the year 2025 (2025-07-29 UTC)

Documentation

Showing up to 5 results
|